Тобыл

Казахстан     53°12′02″N   63°41′31″E
темп.,
°C
ветер,
м/с
пор.,
м/с
влажн.,
%
обл.,
%
осадки,
мм/ч
давл.,
гПа
погр.,
м
12 мая, ср
ср1223:00+15в1137100 0.0 102810
02:00+14юз2239100 0.0 102811
05:00+12з224588 0.0 102814
08:00+17з35400 0.0 1029261
11:00+22зсз44245 0.0 10281813
14:00+25зсз45195 0.0 10272343
17:00+25сз45185 0.0 10262527
20:00+21зсз22355 0.0 102611
13 мая, чт
чт1323:00+19св344787 0.0 102666
02:00+16св335876 0.0 102729
05:00+16в236098 0.0 102750
08:00+19вюв224565 0.0 1028280
11:00+23ссз233643 0.0 10271206
14:00+26сз34285 0.0 10252236
17:00+27ссз45265 0.0 10242410
20:00+23ссв33415 0.0 102520
14 мая, пт
пт1423:00+19ссв33495 0.0 102627
02:00+17ссв22525 0.0 102611
05:00+16ссв22555 0.0 102716
08:00+21ссв23465 0.0 1028235
11:00+25ссв23368 0.0 10281325
14:00+27св223078 0.0 10272413
17:00+28юв12270 0.0 10262548
20:00+24ююв33394 0.0 102534
15 мая, сб
сб1523:00+20ю410496 0.0 1025166
02:00+20юз365024 0.0 1025129
05:00+18юз45521 0.0 102559
08:00+23зюз35405 0.0 1025238
11:00+29зюз462531 0.0 10242222
14:00+30з67207 0.0 10233235
17:00+30з552170 0.0 10223246
20:00+26з333352 0.0 102138
16 мая, вс
вс1623:00+22зсз22330 0.1 102111
02:00+20з22386 0.0 102111
05:00+18зсз22525 0.0 102211
08:00+23с34435 0.0 1022254
11:00+28ссз34285 0.0 10221341
14:00+30ссз33215 0.0 10212427
17:00+31с23199 0.0 10203295
20:00+26в22335 0.0 102013